Year,Month,Day,Hour,Minute,Value (Times are PST for windgust in km/hr)
2014,07,18,00,09,17.70
2014,07,18,00,25,19.30
2014,07,18,00,46,9.60
2014,07,18,01,07,6.40
2014,07,18,01,30,0.00
2014,07,18,01,51,3.20
2014,07,18,02,12,3.20
2014,07,18,02,29,4.80
2014,07,18,02,45,6.40
2014,07,18,03,04,8.10
2014,07,18,03,22,3.20
2014,07,18,03,46,1.60
2014,07,18,04,07,8.10
2014,07,18,04,30,1.60
2014,07,18,04,52,1.60
2014,07,18,05,15,6.40
2014,07,18,05,37,3.20
2014,07,18,05,55,1.60
2014,07,18,06,15,0.00
2014,07,18,06,38,0.00
2014,07,18,06,59,1.60
2014,07,18,07,17,3.20
2014,07,18,07,37,6.40
2014,07,18,07,58,3.20
2014,07,18,08,20,3.20
2014,07,18,08,41,8.10
2014,07,18,09,03,4.80
2014,07,18,09,24,8.10
2014,07,18,09,45,11.30
2014,07,18,10,08,11.30
2014,07,18,10,30,9.60
2014,07,18,10,52,22.50
2014,07,18,11,13,16.10
2014,07,18,11,34,20.90
2014,07,18,11,54,25.70
2014,07,18,12,15,22.50
2014,07,18,12,36,22.50
2014,07,18,13,01,14.50
2014,07,18,13,23,16.10
2014,07,18,13,45,16.10
2014,07,18,14,09,24.20
2014,07,18,14,31,24.20
2014,07,18,14,54,25.70
2014,07,18,15,17,20.90
2014,07,18,15,39,22.50
2014,07,18,16,00,16.10
2014,07,18,16,23,33.80
2014,07,18,16,45,22.50
2014,07,18,17,08,53.10
2014,07,18,17,29,51.50
2014,07,18,17,52,59.50
2014,07,18,18,15,54.70
2014,07,18,18,36,49.90
2014,07,18,19,00,57.90
2014,07,18,19,22,53.10
2014,07,18,19,44,54.70
2014,07,18,20,08,59.50
2014,07,18,20,32,62.70
2014,07,18,20,54,45.10
2014,07,18,21,16,24.20
2014,07,18,21,41,57.90
2014,07,18,22,03,41.80
2014,07,18,22,26,16.10
2014,07,18,22,47,45.10
2014,07,18,23,11,53.10
2014,07,18,23,34,38.60
2014,07,18,23,57,20.90
